Погода в Олбани

США     42°41′04″N   73°47′56″W
темп.,
°C
ветер,
м/с
пор.,
м/с
влажн.,
%
обл.,
%
осадки,
мм/ч
давл.,
гПа
погр.,
м
19 апреля, пн
пн1923:00+7юз1176100 0.0 101117
02:00+6юз1180100 0.0 101118
05:00+6ююв1182100 0.0 101114
08:00+7ю117224 0.0 1012180
11:00+14юз134766 0.0 10111058
14:00+14юз3461100 1.6 10091560
17:00+14ююз2360100 1.4 10091003
20:00+10ю2482100 1.8 1010114
20 апреля, вт
вт2023:00+8ю12841 0.1 101133
02:00+7ююв2688100 0.1 1011148
05:00+7ююв398897 0.0 1010241
08:00+8ю387987 0.0 1011269
11:00+9зсз3876100 0.1 10131199
14:00+13з51043100 0.1 10142034
17:00+11з41147100 0.0 10141931
20:00+10зсз2753100 0.0 10151069
21 апреля, ср
ср2123:00+7сз2553100 0.0 1016390
02:00+6ю1157100 0.3 1016286
05:00+3ссв1291100 4.6 1012232
08:00+4ссв2393100 5.6 1009232
11:00+7юз1795100 1.1 1005353
14:00+12ю51289100 1.3 9991056
17:00+4з61083100 8.5 1003803
20:00+2сз5117999 9.0 10051189
22 апреля, чт
чт2223:000зсз51274100 0.1 1006997
02:000зсз41276100 0.1 1005891
05:000зсз51171100 0.0 10061031
08:000зсз5136286 0.0 10081639
11:00+3зсз61250100 0.1 10082242
14:00+5зсз71442100 0.3 10082430
17:00+5з61357100 0.2 10091848
20:00+3з5145968 0.3 10101603
23 апреля, пт
пт2323:00+2з4136199 0.0 10111377
02:00+3зюз415635 0.0 10101358
05:00+3з6177625 0.0 10091349
08:00+4зсз6137286 0.0 10101145
11:00+5зсз5117265 0.1 10121363
14:00+11зсз594122 0.1 10121857
17:00+10зсз7145539 0.0 10121512
20:00+9зсз313685 0.0 1013999